This demonstration page uses our WeatherBlox Daily Observations layout. Learn more.

36.17497, -115.13722

Hourly Observations for November 4, 2018

Temp ( °F °C ) Dew Point ( °F °C ) Humidity (%) Winds ( mph kmh ) Pressure ( in mb ) Visibility ( mi km ) Precip ( " mm )
12:53 am 00:53 Clear 60 15.6 29 -1.7 31 31 W 3 6 30.12 1020 10 16.09344 0 0
1:53 am 01:53 Clear 59 15 27 -2.8 29 29 Calm 30.09 1019 10 16.09344 0 0
1:53 am 01:53 Clear 58 14.4 27 -2.8 31 31 NW 8 13 30.09 1019 10 16.09344 0 0
2:53 am 02:53 Clear 57 13.9 24 -4.4 28 28 NW 6 9 30.09 1019 10 16.09344 0 0
3:53 am 03:53 Clear 57 13.9 23 -5 27 27 Calm 30.06 1018 10 16.09344 0 0
4:53 am 04:53 Clear 57 13.9 23 -5 27 27 Calm 30.06 1018 10 16.09344 0 0
5:53 am 05:53 Clear 59 15 21 -6.1 23 23 NNW 6 9 30.06 1018 10 16.09344 0 0
6:53 am 06:53 Sunny 59 15 22 -5.6 24 24 W 10 17 30.06 1018 10 16.09344 0 0
7:53 am 07:53 Sunny 60 15.6 24 -4.4 25 25 WNW 5 7 30.09 1019 10 16.09344 0 0
8:53 am 08:53 Sunny 64 17.8 22 -5.6 20 20 NW 3 6 30.09 1019 10 16.09344 0 0
9:53 am 09:53 Sunny 66 18.9 23 -5 19 19 Calm 30.09 1019 10 16.09344 0 0
10:53 am 10:53 Sunny 68 20 25 -3.9 20 20 S 7 11 30.03 1017 10 16.09344 0 0
11:53 am 11:53 Sunny 69 20.6 24 -4.4 18 18 SE 7 11 30 1016 10 16.09344 0 0
12:53 pm 12:53 Sunny 71 21.7 24 -4.4 17 17 N 3 6 29.97 1015 10 16.09344 0 0
1:53 pm 13:53 Sunny 71 21.7 24 -4.4 17 17 SSE 5 7 29.91 1013 10 16.09344 0 0
2:53 pm 14:53 Sunny 71 21.7 24 -4.4 17 17 SSE 6 9 29.91 1013 10 16.09344 0 0
3:53 pm 15:53 Sunny 71 21.7 24 -4.4 17 17 ESE 3 6 29.91 1013 10 16.09344 0 0
4:53 pm 16:53 Clear 70 21.1 24 -4.4 18 18 Calm 29.88 1012 10 16.09344 0 0
5:53 pm 17:53 Clear 68 20 24 -4.4 19 19 Calm 29.88 1012 10 16.09344 0 0
6:53 pm 18:53 Clear 65 18.3 28 -2.2 25 25 N 3 6 29.88 1012 10 16.09344 0 0
7:53 pm 19:53 Clear 63 17.2 29 -1.7 28 28 NW 7 11 29.85 1011 10 16.09344 0 0
8:53 pm 20:53 Clear 62 16.7 31 -0.6 31 31 WNW 8 13 29.85 1011 10 16.09344 0 0
9:53 pm 21:53 Clear 61 16.1 30 -1.1 31 31 NW 5 7 29.85 1011 10 16.09344 0 0
10:53 pm 22:53 Clear 60 15.6 29 -1.7 31 31 NNW 5 7 29.85 1011 10 16.09344 0 0
11:53 pm 23:53 Clear 58 14.4 30 -1.1 35 35 NNW 5 7 29.85 1011 10 16.09344 0 0

Powered by AerisWeather